Location: Pinhey's Point
(45.4411°N, 75.9539°W)
Time: 02:49:15
(UTC-04:00)

Iridium 65 - Visible Passes

Search period start: 26 May 2016 00:00
Search period end: 05 June 2016 00:00
Orbit: 776 x 779 km, 86.4° (Epoch: 25 May)

Date Brightness Start Highest point End Pass type
(mag) Time Alt. Az. Time Alt. Az. Time Alt. Az.
26 May 5.5 22:04:19 10° N 22:09:34 89° ENE 22:14:29 12° S visible
26 May 8.1 23:47:32 10° NW 23:49:27 12° WNW 23:51:21 10° W visible
27 May 5.8 21:30:53 10° N 21:35:59 51° E 21:41:03 10° SSE visible
27 May 7.7 23:12:27 10° NNW 23:16:18 21° W 23:20:08 10° SW visible
28 May 6.9 22:38:17 10° NNW 22:43:02 36° W 22:47:46 10° SSW visible
29 May 5.9 22:04:27 10° N 22:09:39 65° W 22:14:47 10° S visible
30 May 5.5 21:30:53 10° N 21:36:08 72° E 21:41:20 10° S visible
30 May 8.1 23:13:17 10° NW 23:16:10 15° WNW 23:19:05 10° WSW visible
31 May 7.5 22:38:42 10° NNW 22:42:59 26° W 22:47:15 10° SW visible
01 Jun 6.6 22:04:41 10° NNW 22:09:40 46° W 22:14:37 10° SSW visible
02 Jun 5.7 21:30:59 10° N 21:36:14 81° W 21:41:26 10° S visible
02 Jun 8.4 23:15:04 10° WNW 23:16:01 10° WNW 23:16:58 10° W visible
03 Jun 8.0 22:39:18 10° NW 22:42:53 19° WNW 22:46:27 10° WSW visible
04 Jun 7.2 22:05:01 10° NNW 22:09:39 33° W 22:14:15 10° SW visible
